Tracking 19490 objects as of 23-Jan-2019
HD Live streaming from Space Station
objects crossing your sky now

COSMOS 872

Track COSMOS 872 now!
10-day predictions
COSMOS 872 is classified as:


NORAD ID: 9589
Int'l Code: 1976-118B
Perigee: 1,405.7 km
Apogee: 1,470.5 km
Inclination: 74.0 °
Period: 114.5 minutes
Semi major axis: 7809 km
RCS: 0.7031 m2 (medium)
Launch date: December 7, 1976
Source: Commonwealth of Independent States (former USSR) (CIS)
Launch site: PLESETSK MISSILE AND SPACE COMPLEX (PKMTR)
aabbcc
Your satellite tracking list
Your tracking list is empty




NASA's NSSDC Master Catalog

Two Line Element Set (TLE):
1  9589U 76118B   19022.92072383 -.00000017 +00000-0 -59155-5 0  9992
2  9589 074.0303 010.0647 0041445 013.1496 012.1169 12.58062225934649
Source of the keplerian elements: AFSPC